Home > Time Zones > World Clock > Weather > India > Buxar > Past weeks

Flag Weather past 2 weeks in Buxar, Bihar, India

Now
77 °F

Haze.


Feels Like: 78 °F
Forecast: 55 / 82 °F
Wind: 1 mph from South

Location: Varanasi / Babatpur

Current Time: Nov 27, 2014 at 1:52:19 PM

Latest Report: Nov 27, 2014 at 1:00 PM


Visibility: 2 mi

Pressure: 29.92 "Hg

Humidity: 36%

Dew point: 48 °F

Location of BuxarLocation

Historic Weather in Buxar — Graph

°F

Buxar temperature yesterday

Maximum temperature yesterday: 79 °F (at 2:00 PM)
Minimum temperature yesterday: 55 °F (at 6:00 AM)
Average temperature yesterday: 66 °F

Past Weeks' High & Low Weather Summary

 TemperatureHumidityPressure
High86 °F (Nov 12, 3:00 PM)94% (Nov 13, 5:00 AM)30.09 "Hg (Nov 13, 5:00 AM)
Low55 °F (Nov 25, 6:00 AM)30% (Nov 16, 3:00 PM)29.71 "Hg (Nov 20, 12:00 PM)
Average70 °F63%29.96 "Hg
* Reported Nov 12 12:00 Noon — Nov 27 12:00 Noon, Buxar, Weather by CustomWeather, © 2014

Note: Actual official high and low records may vary slightly from our data, if they occured in-between our weather recording intervals... More about our weather records

Advertising

Buxar weather history for previous 24 hours

 ConditionsComfort  
Time TempWeatherWind HumidityBarometerVisibility
12:00 PM
Nov 27
75 °FHaze.No wind41%29.92 "Hg2 mi
11:00 AM72 °FHaze.No wind44%29.95 "Hg2 mi
10:00 AM66 °FHaze.1 mph60%29.98 "Hg1 mi
8:00 AM57 °FFog.No wind82%29.95 "Hg1 mi
6:00 AM55 °FHaze.No wind88%29.89 "Hg1 mi
12:00 AM61 °FHaze.3 mph68%29.86 "Hg1 mi
11:00 PM
Nov 26
63 °FHaze.1 mph68%29.86 "Hg1 mi
10:00 PM66 °FHaze.1 mph56%29.86 "Hg1 mi
9:00 PM66 °FHaze.6 mph60%29.86 "Hg1 mi
8:00 PM66 °FHaze.3 mph64%29.86 "Hg1 mi
7:00 PM66 °FHaze.3 mph64%29.83 "Hg2 mi
6:00 PM68 °FHaze.5 mph56%29.83 "Hg2 mi
4:00 PM77 °FHaze.2 mph36%29.80 "Hg2 mi
3:00 PM79 °FHaze.7 mph37%29.80 "Hg2 mi
2:00 PM79 °FHaze.7 mph32%29.83 "Hg2 mi
1:00 PM77 °FHaze.8 mph42%29.86 "Hg2 mi
Weather by CustomWeather, © 2014

See weather overviewHow to use our weather pages